Regional Weather Roundup
Issued by NWS

Home | Current Version | Previous Version | Text Only | Print | Product List | Glossary Off
Versions: 1 2 3 4 5 6 7 8 9 10 11 12 13 14 15 16 17 18 19 20 21 22 23 24 25 26 27 28 29 30 31 32 33 34 35 36 37 38 39 40 41 42 43 44 45 46 47 48 49 50

000
ASUS43 KBIS 250410
RWRND
NORTH DAKOTA REGIONAL WEATHER ROUNDUP
NATIONAL WEATHER SERVICE EASTERN NORTH DAKOTA/GRAND FORKS ND
1100 PM CDT SAT JUN 24 2017

  NOTE: "FAIR" INDICATES FEW OR NO CLOUDS BELOW 12,000 FEET WITH NO
  SIGNIFICANT WEATHER AND/OR OBSTRUCTIONS TO VISIBILITY.

NDZ001>003-009>011-017-250500-
...NORTHWEST NORTH DAKOTA...

CITY           SKY/WX    TMP DP  RH WIND       PRES   REMARKS
WILLISTON      FAIR      48  39  71 CALM      30.27R
MINOT          FAIR      52  38  58 W5        30.25R
MINOT AFB      FAIR      44  39  82 SW5       30.24R
$$

NDZ018>021-031>035-040>046-250500-
...SOUTHWEST NORTH DAKOTA...

CITY           SKY/WX    TMP DP  RH WIND       PRES   REMARKS
BISMARCK       FAIR      55  39  54 NW6       30.29R
DICKINSON      FAIR      48  31  51 CALM      30.30R
GARRISON         N/A     45  37  73 NW6       30.27R
HETTINGER      FAIR      51  32  48 NE9       30.33R
$$

NDZ004>008-012>016-024-026-027-054-250500-
...NORTHEAST NORTH DAKOTA...

CITY           SKY/WX    TMP DP  RH WIND       PRES   REMARKS
GRAND FORKS    CLOUDY    53  48  83 NW10      30.17R
GRAND FORKS AF CLOUDY    52  46  80 NW8       30.19R
DEVILS LAKE    MOCLDY    51  45  79 NW8       30.22R
$$

NDZ022-023-025-028>030-036>039-047>053-250500-
...SOUTHEAST NORTH DAKOTA...

CITY           SKY/WX    TMP DP  RH WIND       PRES   REMARKS
JAMESTOWN      CLOUDY    51  48  89 NW7       30.22R
FARGO          CLOUDY    53  44  71 NW14      30.17S
WAHPETON       CLOUDY    50  43  76 N17G28    30.19R
$$



USA.gov is the U.S. government's official web portal to all federal, state and local government web resources and services.